Regional Weather Roundup
Issued by NWS

Home | Current Version | Previous Version | Text Only | Print | Product List | Glossary Off
Versions: 1 2 3 4 5 6 7 8 9 10 11 12 13 14 15 16 17 18 19 20 21 22 23 24 25 26 27 28 29 30 31 32 33 34 35 36 37 38 39 40 41 42 43 44 45 46 47 48 49 50

000
ASUS43 KLMK 042010
RWRKY
KENTUCKY REGIONAL WEATHER ROUNDUP
NATIONAL WEATHER SERVICE LOUISVILLE KY
400 PM EDT SAT JUL 04 2015

NOTE "FAIR" INDICATES FEW OR NO CLOUDS BELOW 12,000 FEET
WITH NO SIGNIFICANT WEATHER AND/OR OBSTRUCTIONS TO VISIBILITY.

KYZ001>023-026-027-061>063-070>075-042100-
WESTERN AND SOUTH CENTRAL KENTUCKY

CITY           SKY/WX    TMP DP  RH WIND       PRES   REMARKS
PADUCAH        CLOUDY    81  68  64 E5        29.97F
HENDERSON      PTSUNNY   81  64  57 CALM      29.97S
OWENSBORO      CLOUDY    82  68  62 N6        29.99F
HOPKINSVILLE   CLOUDY    79  70  73 VRB6      29.98S
BOWLING GREEN  PTSUNNY   81  69  67 N5        29.98F
GLASGOW        CLOUDY    80  66  63 CALM      29.99S
$$

KYZ024-025-028>034-038-045-046-053-042100-
NORTH CENTRAL KENTUCKY

CITY           SKY/WX    TMP DP  RH WIND       PRES   REMARKS
LOUISVILLE/SDF PTSUNNY   83  65  54 CALM      29.98F
LOUISVILLE/LOU PTSUNNY   82  65  56 VRB5      29.99F
FORT KNOX      PTSUNNY   80  67  64 NW5       29.98F
$$

KYZ035>037-039>044-047>052-055>060-089>105-042100-
NORTHEAST KENTUCKY

CITY           SKY/WX    TMP DP  RH WIND       PRES   REMARKS
LEXINGTON      PTSUNNY   80  65  59 VRB3      30.01F
COVINGTON      PTSUNNY   80  63  55 NW5       30.02S
FRANKFORT      PTSUNNY   80  65  59 CALM      30.00S
$$

KYZ054-064>069-076>088-106>120-042100-
SOUTHEAST KENTUCKY

CITY           SKY/WX    TMP DP  RH WIND       PRES   REMARKS
JACKSON        CLOUDY    76  67  73 CALM      30.03S
LONDON         CLOUDY    80  66  62 W7        30.02S
SOMERSET       PTSUNNY   77  64  65 W5        30.02S
MIDDLESBORO    CLOUDY    79  67  66 W3        30.02S
MONTICELLO     CLOUDY    81  71  71 W3        30.03F
$$




USA.gov is the U.S. government's official web portal to all federal, state and local government web resources and services.